Location: Arrington
(35.8681°N, 86.7092°W)
Time: 14:09:54
(UTC+00:00)

Cosmos 1743 Rocket - Visible Passes

Search period start: 18 February 2020 00:00
Search period end: 28 February 2020 00:00
Orbit: 603 x 634 km, 82.6° (Epoch: 17 February)

Date Brightness Start Highest point End Pass type
(mag) Time Alt. Az. Time Alt. Az. Time Alt. Az.
18 Feb 5.0 00:08:52 10° SSW 00:13:02 41° W 00:17:11 10° N visible
18 Feb 5.1 10:20:22 10° NNE 10:24:18 34° ENE 10:28:14 10° SE visible
18 Feb 5.1 11:59:13 10° NW 12:01:48 16° W 12:04:23 10° WSW visible
19 Feb 6.3 00:26:57 10° SW 00:30:21 22° WNW 00:33:45 10° NNW visible
19 Feb 3.7 10:37:14 10° N 10:41:33 69° E 10:45:52 10° SSE visible
20 Feb 6.9 00:46:18 10° W 00:47:46 11° WNW 00:49:14 10° NW visible
20 Feb 3.5 10:54:28 10° NNW 10:58:43 58° W 11:02:58 10° S visible
21 Feb 6.1 09:35:18 12° NE 09:37:57 19° ENE 09:41:01 10° ESE visible
21 Feb 4.3 11:13:15 17° NW 11:15:47 29° W 11:19:31 10° SSW visible
22 Feb 5.5 09:57:11 24° SE 09:57:11 24° SE 09:59:16 10° SE visible
22 Feb 5.4 11:34:32 12° WSW 11:34:32 12° WSW 11:35:16 10° WSW visible
22 Feb 6.4 23:58:02 10° SW 00:01:20 21° WNW 00:04:39 10° NNW visible
24 Feb 7.0 00:17:37 10° W 00:18:46 11° WNW 00:19:55 10° NW visible
